San Jose, CA

1:54 PM PDT on April 26, 2017 (GMT -0700)
San Jose International

Weather History for KSJC - May, 2013

Change the Weather History Date:

Thursday, May 30, 2013

  Actual Average Record
Temperature  
Mean Temperature 63 °F 66 °F  
Max Temperature 74 °F 77 °F 100 °F (2001)
Min Temperature 51 °F 54 °F 35 °F (1893)
Degree Days  
Heating Degree Days 2 1  
Month to date heating degree days 80 80  
Since 1 July heating degree days 2059 1984  
Cooling Degree Days 0 2  
Month to date cooling degree days 39 49  
Year to date cooling degree days 64 68  
Growing Degree Days 12 (Base 50)    
Moisture  
Dew Point 46 °F    
Average Humidity 56    
Maximum Humidity 83    
Minimum Humidity 29    
Precipitation  
Precipitation 0.00 in 0.00 in 0.36 in (1936)
Month to date precipitation 0.01 0.38  
Year to date precipitation 2.20 9.79  
Since 1 July precipitation 9.39  
Sea Level Pressure  
Sea Level Pressure 29.98 in    
Wind  
Wind Speed 7 mph (NW)    
Max Wind Speed 20 mph    
Max Gust Speed 23 mph    
Visibility 10 miles    
Events      
T = Trace of Precipitation, MM = Missing Value Source: NWS Daily Summary

Daily Weather History Graph

Daily Weather History Graph

Search for Another Location

Airport or City:

Trip Planner

Search our weather history database for the weather conditions in past years. The results will help you decide how hot, cold, wet, or windy it might be!

Date:

Astronomy

May. 30, 2013 Rise Set
Actual Time 5:49 AM PDT 8:21 PM PDT
Civil Twilight 5:18 AM PDT 8:52 PM PDT
Nautical Twilight 4:41 AM PDT 9:29 PM PDT
Astronomical Twilight 3:59 AM PDT 10:11 PM PDT
Moon 12:30 AM PDT (5/30) 11:58 AM PDT (5/30)
Length of Visible Light 15h 33m
Length of Day
14h 32m
Waning Gibbous, 61% of the Moon is Illuminated
May 30
Waning Gibbous
May 31
Last Quarter
Jun 8
New
Jun 16
First Quarter
Jun 23
Full

Hourly Weather History & Observations

Time (PDT) Temp. Dew Point Humidity Pressure Visibility Wind Dir Wind Speed Gust Speed Precip Events Conditions
12:53 AM 55.0 °F 46.9 °F 74% 29.97 in 10.0 mi North 4.6 mph - N/A   Clear
1:53 AM 54.0 °F 46.9 °F 77% 29.97 in 10.0 mi Calm Calm - N/A   Clear
2:53 AM 54.0 °F 46.9 °F 77% 29.96 in 10.0 mi Calm Calm - N/A   Clear
3:53 AM 53.1 °F 48.0 °F 83% 29.96 in 10.0 mi NW 5.8 mph - N/A   Clear
4:53 AM 52.0 °F 46.9 °F 83% 29.98 in 10.0 mi NW 3.5 mph - N/A   Clear
5:53 AM 52.0 °F 46.9 °F 83% 29.98 in 10.0 mi Calm Calm - N/A   Clear
6:53 AM 52.0 °F 46.0 °F 80% 29.99 in 10.0 mi Calm Calm - N/A   Clear
7:53 AM 55.9 °F 46.9 °F 72% 30.00 in 10.0 mi West 4.6 mph - N/A   Clear
8:53 AM 57.9 °F 46.9 °F 67% 30.00 in 10.0 mi NNW 3.5 mph - N/A   Clear
9:53 AM 62.1 °F 45.0 °F 53% 30.00 in 10.0 mi NW 8.1 mph - N/A   Clear
10:53 AM 64.0 °F 46.9 °F 54% 30.00 in 10.0 mi NW 6.9 mph - N/A   Clear
11:53 AM 66.9 °F 46.9 °F 49% 30.00 in 10.0 mi Variable 4.6 mph - N/A   Clear
12:53 PM 70.0 °F 46.0 °F 42% 29.99 in 10.0 mi WNW 9.2 mph - N/A   Clear
1:53 PM 72.0 °F 43.0 °F 35% 29.98 in 10.0 mi WNW 8.1 mph - N/A   Clear
2:53 PM 73.9 °F 39.9 °F 29% 29.98 in 10.0 mi NW 12.7 mph - N/A   Clear
3:53 PM 72.0 °F 44.1 °F 37% 29.97 in 10.0 mi WNW 13.8 mph - N/A   Clear
4:53 PM 71.1 °F 45.0 °F 39% 29.97 in 10.0 mi NW 16.1 mph 23.0 mph N/A   Clear
5:53 PM 68.0 °F 45.0 °F 43% 29.97 in 10.0 mi NNW 15.0 mph - N/A   Clear
6:53 PM 66.0 °F 46.0 °F 48% 29.97 in 10.0 mi NW 15.0 mph - N/A   Clear
7:53 PM 63.0 °F 45.0 °F 52% 29.98 in 10.0 mi NW 12.7 mph - N/A   Clear
8:53 PM 61.0 °F 46.0 °F 58% 29.98 in 10.0 mi NNW 5.8 mph - N/A   Clear
9:53 PM 59.0 °F 46.0 °F 62% 29.99 in 10.0 mi NW 5.8 mph - N/A   Clear
10:53 PM 57.9 °F 46.9 °F 67% 30.01 in 10.0 mi NW 4.6 mph - N/A   Clear
11:53 PM 55.9 °F 46.9 °F 72% 30.01 in 10.0 mi NW 5.8 mph - N/A   Clear